Monroe, LA

11:01 PM CDT on April 29, 2017 (GMT -0500)
Monroe Regional

Weather History for KMLU - November, 2012

Change the Weather History Date:

Tuesday, November 6, 2012

  Actual Average Record
Temperature  
Mean Temperature 54 °F 60 °F  
Max Temperature 63 °F 72 °F 86 °F (1989)
Min Temperature 44 °F 47 °F 29 °F (1959)
Degree Days  
Heating Degree Days 11 7  
Month to date heating degree days 30 37  
Since 1 July heating degree days 139 127  
Cooling Degree Days 0 1  
Month to date cooling degree days 7 8  
Year to date cooling degree days 2767 2492  
Moisture  
Dew Point 47 °F    
Average Humidity 76    
Maximum Humidity 100    
Minimum Humidity 52    
Precipitation  
Precipitation 0.00 in 0.15 in 0.88 in (2006)
Month to date precipitation 0.66 0.88  
Year to date precipitation 50.77 44.77  
Snow  
Snow 0.00 in - - ()
Month to date snowfall 0.0  
Since 1 July snowfall 0.0  
Since 1 September snowfall 0.0  
Snow Depth 0.00 in    
Sea Level Pressure  
Sea Level Pressure 30.07 in    
Wind  
Wind Speed 4 mph (NNW)    
Max Wind Speed 14 mph    
Max Gust Speed 21 mph    
Visibility 6 miles    
Events Fog    
T = Trace of Precipitation, MM = Missing Value Source: NWS Daily Summary

Daily Weather History Graph

Daily Weather History Graph

Search for Another Location

Airport or City:

Trip Planner

Search our weather history database for the weather conditions in past years. The results will help you decide how hot, cold, wet, or windy it might be!

Date:

Astronomy

Nov. 06, 2012 Rise Set
Actual Time 6:30 AM CST 5:12 PM CST
Civil Twilight 6:04 AM CST 5:38 PM CST
Nautical Twilight 5:35 AM CST 6:07 PM CST
Astronomical Twilight 5:06 AM CST 6:36 PM CST
Moon 11:48 PM CST (11/6) 12:25 PM CST (11/6)
Length of Visible Light 11h 34m
Length of Day
10h 42m
Waning Gibbous, 53% of the Moon is Illuminated
Nov 6
Waning Gibbous
Nov 6
Last Quarter
Nov 13
New
Nov 20
First Quarter
Nov 28
Full

Hourly Weather History & Observations

Time (CST) Temp. Dew Point Humidity Pressure Visibility Wind Dir Wind Speed Gust Speed Precip Events Conditions
12:53 AM 52.0 °F 51.1 °F 97% 30.01 in 0.2 mi Calm Calm - N/A Fog Fog
1:53 AM 52.0 °F 51.1 °F 97% 30.03 in 0.2 mi NNW 3.5 mph - N/A Fog Fog
2:12 AM 51.8 °F 51.8 °F 100% 30.03 in 0.5 mi North 3.5 mph - N/A Fog Fog
2:53 AM 52.0 °F 51.1 °F 97% 30.02 in 0.5 mi NW 3.5 mph - N/A Fog Fog
3:34 AM 53.6 °F 51.8 °F 94% 30.02 in 1.5 mi Calm Calm - N/A   Overcast
3:42 AM 53.6 °F 51.8 °F 94% 30.02 in 3.0 mi North 4.6 mph - N/A   Overcast
3:53 AM 53.1 °F 52.0 °F 96% 30.02 in 3.0 mi NNE 3.5 mph - N/A   Overcast
4:01 AM 53.6 °F 51.8 °F 94% 30.02 in 2.0 mi NNE 4.6 mph - N/A   Overcast
4:15 AM 53.6 °F 51.8 °F 94% 30.02 in 3.0 mi North 3.5 mph - N/A   Overcast
4:53 AM 53.1 °F 52.0 °F 96% 30.03 in 4.0 mi North 8.1 mph - N/A   Overcast
5:00 AM 28.4 °F 24.8 °F 86% 30.11 in 10.0 mi Calm Calm - N/A   Clear
5:36 AM 51.8 °F 50.0 °F 94% 30.04 in 6.0 mi NNE 9.2 mph - N/A   Overcast
5:53 AM 51.1 °F 48.9 °F 92% 30.05 in 5.0 mi North 9.2 mph - N/A   Overcast
6:29 AM 50.0 °F 46.4 °F 87% 30.08 in 8.0 mi NNE 9.2 mph - N/A   Overcast
6:49 AM 50.0 °F 46.4 °F 87% 30.09 in 8.0 mi North 5.8 mph - N/A   Overcast
6:53 AM 50.0 °F 46.9 °F 89% 30.09 in 8.0 mi North 5.8 mph - N/A   Overcast
7:43 AM 51.8 °F 46.4 °F 82% 30.11 in 8.0 mi North 6.9 mph - N/A   Overcast
7:53 AM 51.1 °F 48.0 °F 89% 30.12 in 8.0 mi North 5.8 mph - N/A   Overcast
8:53 AM 54.0 °F 48.0 °F 80% 30.12 in 9.0 mi North 4.6 mph - N/A   Overcast
9:53 AM 54.0 °F 46.9 °F 77% 30.13 in 10.0 mi North 5.8 mph - N/A   Overcast
10:53 AM 55.9 °F 46.9 °F 72% 30.13 in 10.0 mi NW 8.1 mph - N/A   Overcast
11:53 AM 55.9 °F 46.9 °F 72% 30.12 in 10.0 mi WNW 8.1 mph - N/A   Overcast
12:15 PM 57.2 °F 46.4 °F 67% 30.11 in 10.0 mi WNW 10.4 mph 16.1 mph N/A   Mostly Cloudy
12:24 PM 57.2 °F 46.4 °F 67% 30.10 in 10.0 mi WNW 6.9 mph - N/A   Mostly Cloudy
12:53 PM 60.1 °F 46.0 °F 60% 30.09 in 10.0 mi NW 4.6 mph - N/A   Scattered Clouds
1:53 PM 62.1 °F 45.0 °F 53% 30.06 in 10.0 mi WNW 8.1 mph - N/A   Mostly Cloudy
2:53 PM 62.1 °F 45.0 °F 53% 30.04 in 10.0 mi NW 4.6 mph - N/A   Mostly Cloudy
3:53 PM 62.1 °F 45.0 °F 53% 30.04 in 10.0 mi WNW 5.8 mph - N/A   Clear
4:53 PM 60.1 °F 46.0 °F 60% 30.04 in 10.0 mi Calm Calm - N/A   Clear
5:53 PM 52.0 °F 48.0 °F 86% 30.05 in 10.0 mi Calm Calm - N/A   Clear
6:53 PM 51.1 °F 48.0 °F 89% 30.06 in 10.0 mi Calm Calm - N/A   Clear
7:53 PM 48.0 °F 46.0 °F 93% 30.08 in 10.0 mi Calm Calm - N/A   Clear
8:53 PM 48.9 °F 46.0 °F 90% 30.07 in 10.0 mi Calm Calm - N/A   Clear
9:53 PM 48.0 °F 46.0 °F 93% 30.07 in 10.0 mi Calm Calm - N/A   Clear
10:53 PM 46.0 °F 43.0 °F 89% 30.07 in 7.0 mi Calm Calm - N/A   Clear
11:46 PM 44.6 °F 42.8 °F 93% 30.08 in 1.8 mi Calm Calm - N/A   Clear
11:50 PM 44.6 °F 42.8 °F 93% 30.08 in 0.8 mi Calm Calm - N/A   Mist
11:53 PM 44.1 °F 43.0 °F 96% 30.08 in 0.5 mi Calm Calm - N/A Fog Fog